Location: Lower Kingswood
(51.2667°N, 0.2167°W)
Time: 19:44:52
(UTC+00:00)

Cosmos 2315 Rocket - Pass Details

Date: 26 September 2023
Orbit: 965 x 1002 km, 82.9° (Epoch: 08 December)

Event Time Altitude Azimuth Distance (km) Brightness Sun altitude
Rises 03:36:19 0° 350° (N) 3,724 7.3 -21.4°
Reaches altitude 10° 03:38:51 10° 351° (N) 2,775 6.6 -21.1°
Maximum altitude 03:45:15 82° 79° (E) 1,017 4.1 -20.2°
Drops below altitude 10° 03:51:39 10° 168° (SSE) 2,769 6.2 -19.3°
Sets 03:54:10 0° 169° (S) 3,715 6.9 -18.9°
